Tracking 27107 objects as of 21-Mar-2023
HD Live streaming from Space Station
objects crossing your sky now

STARLINK-4013

Track STARLINK-4013 now!
10-day predictions
STARLINK-4013 is classified as:


NORAD ID: 52604
Int'l Code: 2022-052G
Perigee: 546.0 km
Apogee: 547.7 km
Inclination: 53.2 °
Period: 95.4 minutes
Semi major axis: 6917 km
RCS: Unknown
Launch date: May 14, 2022
Source: United States (US)
Launch site: AIR FORCE EASTERN TEST RANGE (AFETR)
Your satellite tracking list
Your tracking list is empty




NASA's NSSDC Master Catalog

Two Line Element Set (TLE):
1 52604U 22052G   23080.10711462  .00001044  00000-0  83653-4 0  9991
2 52604  53.2153 108.0002 0001248  90.0164 270.0971 15.08838745 47493
Source of the keplerian elements: AFSPC